View from above orbital plane
|
View from above satellite
|
Ground track
|
The orbit data is extracted from the following two-line orbital elements,
1 20217U 89070A 21015.67105441 -.00000168 00000-0 00000-0 0 9999
2 20217 15.7012 1.6520 0047010 92.3388 264.8543 0.97412517113260
Epoch (UTC): | 15 January 2021 16:06:19 |
Eccentricity: | 0.0047010 |
inclination: | 15.7012° |
perigee height: | 36405 km |
apogee height: | 36809 km |
right ascension of ascending node: | 1.6520° |
argument of perigee: | 92.3388° |
revolutions per day: | 0.97412517 |
mean anomaly at epoch: | 264.8543° |
orbit number at epoch: | 11326 |
The dashed part of the orbit path shows where the satellite is in the earth's shadow,
|
|